Flag for Canada Weather past 2 weeks in Barrie, Ontario, Canada

Now
86 °F

Scattered clouds.


Feels Like: 87 °F
Forecast: 62 / 87 °F
Wind: 13 mph from South

Location: Borden

Current Time: Jul 22, 2014 at 2:02:23 PM

Latest Report: Jul 22, 2014 at 1:00 PM


Visibility: 9 mi

Pressure: 30.03 "Hg

Humidity: 46%

Dew point: 63 °F

Location of BarrieLocation

Historic Weather in Barrie — Graph

°F

Barrie temperature yesterday

Maximum temperature yesterday: 84 °F (at 5:00 PM)
Minimum temperature yesterday: 63 °F (at 3:00 AM)
Average temperature yesterday: 72 °F

Past Weeks' High & Low Weather Summary

 TemperatureHumidityPressure
High84 °F (Jul 21, 5:00 PM)100% (Jul 22, 2:01 AM)30.26 "Hg (Jul 22, 2:01 AM)
Low41 °F (Jul 10, 6:00 AM)45% (Jul 21, 5:00 PM)29.42 "Hg (Jul 8, 4:00 PM)
Average65 °F70%29.96 "Hg
* Reported Jul 7 12:00 Noon — Jul 22 12:00 Noon, Barrie, Weather by CustomWeather, © 2014

Note: Actual official high and low records may vary slightly from our data, if they occured in-between our weather recording intervals... More about our weather records

Advertising

Barrie weather history for previous 24 hours

 ConditionsComfort  
Time TempWeatherWind HumidityBarometerVisibility
12:00 PM
Jul 22
84 °FPassing clouds.10 mph48%30.05 "Hg9 mi
11:00 AM82 °FSunny.10 mph51%30.06 "Hg9 mi
10:00 AM81 °FSunny.9 mph58%30.09 "Hg9 mi
9:00 AM75 °FSunny.6 mph69%30.11 "Hg9 mi
8:00 AM70 °FSunny.3 mph83%30.11 "Hg9 mi
7:00 AM64 °FSunny.3 mph94%30.10 "Hg7 mi
6:00 AM61 °FClear.3 mph94%30.09 "Hg6 mi
5:00 AM61 °FClear.No wind94%30.10 "Hg5 mi
4:00 AM61 °FClear.2 mph100%30.09 "Hg4 mi
3:00 AM63 °FClear.2 mph94%30.09 "Hg7 mi
2:01 AM61 °FClear.2 mph100%30.10 "Hg4 mi
1:00 AM63 °FClear.2 mph94%30.10 "Hg7 mi
12:00 AM64 °FClear.No wind94%30.11 "Hg8 mi
11:00 PM
Jul 21
64 °FClear.No wind94%30.12 "Hg9 mi
10:00 PM68 °FClear.No wind88%30.11 "Hg9 mi
9:00 PM73 °FScattered clouds.3 mph74%30.10 "Hg9 mi
8:00 PM79 °FScattered clouds.No wind58%30.09 "Hg9 mi
7:00 PM81 °FScattered clouds.5 mph51%30.09 "Hg9 mi
6:00 PM82 °FScattered clouds.2 mph48%30.09 "Hg9 mi
5:00 PM84 °FScattered clouds.6 mph45%30.09 "Hg9 mi
4:00 PM82 °FScattered clouds.6 mphN/A30.10 "Hg9 mi
3:00 PM82 °FPassing clouds.5 mphN/A30.11 "Hg9 mi
2:00 PM82 °FPassing clouds.No windN/A30.11 "Hg9 mi
Weather by CustomWeather, © 2014

See weather overviewHow to use our weather pages